Flag for U.S.A. Weather past 2 weeks in Garland, Texas, U.S.A.

Now
75 °F

Mostly cloudy.


Feels Like: 75 °F
Forecast: 69 / 77 °F
Wind: 6 mph from Southeast

Location: Mesquite Metro Airport

Current Time: May 24, 2015 at 8:57:13 PM

Latest Report: May 24, 2015 at 8:15 PM


Visibility: 10 mi

Pressure: 29.87 "Hg

Humidity: 81%

Dew point: 69 °F

Location of GarlandLocation

Historic Weather in Garland — Graph

°F

Garland temperature yesterday

Maximum temperature yesterday: 79 °F (at 1:50 PM)
Minimum temperature yesterday: 68 °F (at 5:35 AM)
Average temperature yesterday: 70 °F

Past Weeks' High & Low Weather Summary

 TemperatureHumidityPressure
High88 °F (May 18, 2:50 PM)100% (May 10, 9:50 AM)30.28 "Hg (May 10, 9:50 AM)
Low36 °F (May 17, 12:50 PM)43% (May 18, 5:50 PM)26.42 "Hg (May 10, 5:50 PM)
Average70 °F87%30.01 "Hg
* Reported May 9 6:50 PM — May 24 6:50 PM, Garland, Weather by CustomWeather, © 2015

Note: Actual official high and low records may vary slightly from our data, if they occured in-between our weather recording intervals... More about our weather records

Advertising

Garland weather history for previous 24 hours

 ConditionsComfort  
Time TempWeatherWind HumidityBarometerVisibility
6:50 PM
Sun, May 24
77 °FScattered clouds.8 mph74%29.85 "Hg10 mi
5:50 PM77 °FScattered clouds.10 mph69%29.84 "Hg10 mi
4:50 PM75 °FScattered clouds.13 mph78%29.84 "Hg10 mi
3:50 PM73 °FScattered clouds.14 mph89%29.86 "Hg10 mi
2:50 PM73 °FPartly sunny.9 mph89%29.89 "Hg10 mi
1:50 PM72 °FScattered clouds.7 mph94%29.90 "Hg10 mi
12:55 PM70 °FMostly cloudy.7 mph88%29.90 "Hg10 mi
11:50 AM72 °FBroken clouds.9 mph94%29.89 "Hg10 mi
10:50 AM68 °FCloudy.8 mph100%29.87 "Hg7 mi
9:50 AM66 °FFog.No wind100%29.89 "Hg6 mi
8:50 AM66 °FRain. Fog.12 mph100%29.91 "Hg5 mi
7:47 AM66 °FRain. Fog.13 mph94%29.94 "Hg5 mi
6:50 AM66 °FFog.5 mph94%29.91 "Hg5 mi
6:15 AM66 °FPassing clouds.6 mph96%29.91 "Hg10 mi
5:55 AM66 °FPassing clouds.7 mph95%29.91 "Hg10 mi
5:35 AM66 °FPartly cloudy.8 mph96%29.93 "Hg10 mi
5:15 AM66 °FMostly cloudy.7 mph95%29.92 "Hg10 mi
4:55 AM67 °FMostly cloudy.8 mph94%29.92 "Hg10 mi
4:35 AM67 °FPassing clouds.8 mph94%29.92 "Hg10 mi
4:15 AM67 °FPassing clouds.10 mph94%29.91 "Hg10 mi
3:55 AM67 °FPassing clouds.15 mph93%29.91 "Hg10 mi
3:35 AM67 °FPartly cloudy.20 mph91%29.89 "Hg10 mi
3:15 AM68 °FMostly cloudy.23 mph91%29.87 "Hg10 mi
2:55 AM69 °FMild.24 mph89%29.88 "Hg10 mi
2:35 AM72 °FMostly cloudy.20 mph96%29.85 "Hg7 mi
2:15 AM72 °FOvercast.12 mph97%29.86 "Hg7 mi
1:55 AM72 °FPassing clouds.14 mph97%29.87 "Hg10 mi
1:35 AM72 °FOvercast.9 mph97%29.91 "Hg10 mi
1:15 AM71 °FOvercast.5 mph97%29.93 "Hg10 mi
12:55 AM71 °FPartly cloudy.3 mph97%29.95 "Hg7 mi
12:35 AM72 °FPartly cloudy.6 mph97%29.95 "Hg7 mi
12:15 AM71 °FPartly cloudy.5 mph97%29.95 "Hg10 mi
11:55 PM
Sat, May 23
71 °FPassing clouds.7 mph96%29.96 "Hg10 mi
11:35 PM71 °FPassing clouds.8 mph95%29.95 "Hg10 mi
11:15 PM69 °FOvercast.12 mph97%29.96 "Hg3 mi
10:55 PM71 °FMostly cloudy.12 mph98%29.96 "Hg2 mi
10:15 PM70 °FOvercast.6 mph98%29.96 "Hg4 mi
9:55 PM69 °FOvercast.7 mph99%29.96 "Hg4 mi
9:35 PM69 °FPassing clouds.5 mph99%29.96 "Hg5 mi
9:15 PM69 °FScattered clouds.3 mph98%29.96 "Hg7 mi
8:55 PM69 °FScattered clouds.No wind98%29.97 "Hg7 mi
8:35 PM69 °FScattered clouds.No wind98%29.97 "Hg7 mi
8:15 PM69 °FCloudy.No wind98%29.99 "Hg5 mi
Weather by CustomWeather, © 2015

See weather overviewHow to use our weather pages